Location: *
(57.8420°S, 159.8600°W)
Time: 13:06:51
(UTC+00:00)

Cosmos 1697 Rocket - Pass Details

Date: 18 May 2021
Orbit: 832 x 844 km, 71.0° (Epoch: 22 June)

Event Time Altitude Azimuth Distance (km) Brightness Sun altitude
Rises 06:40:05 0° 224° (SW) 3,441 6.7 -32.9°
Reaches altitude 10° 06:42:48 10° 214° (SW) 2,501 5.7 -33.2°
Enters shadow 06:45:54 26° 189° (S) 1,616 4.3 -33.6°
